Overview Statistics Trail Chart Weather Telemetry Raw packets
 

This is the latest recevied weather packets stored in our database for station/object K9ABJ. If no packets are shown the sender has not sent any weather packets the latest 10 day(s).

<< 2 3 4 5 6 7 8 >>
Time Temp. Humidity Pressure Rain* Wind** Luminosity Snow
1788567369 27.78° C 88% 1013.2 hPa 0 mm - 0 W/m² -
1788567068 27.78° C 87% 1013.3 hPa 0 mm - 0 W/m² -
1788566764 28.33° C 87% 1013.3 hPa 0 mm - 1 W/m² -
1788566460 28.33° C 87% 1013.3 hPa 0 mm - 2 W/m² -
1788566160 28.89° C 86% 1013.2 hPa 0 mm - 6 W/m² -
1788565859 28.89° C 85% 1013.2 hPa 0 mm - 9 W/m² -
1788565554 28.89° C 85% 1013.6 hPa 0 mm - 12 W/m² -
1788565250 28.89° C 84% 1013.6 hPa 0 mm - 16 W/m² -
1788564944 28.89° C 85% 1013.6 hPa 0 mm - 21 W/m² -
1788564641 28.89° C 84% 1013.6 hPa 0 mm - 22 W/m² -
1788564338 29.44° C 82% 1013.2 hPa 0 mm - 24 W/m² -
1788564034 30.56° C 79% 1013.6 hPa 0 mm - 32 W/m² -
1788563730 30° C 80% 1013.2 hPa 0 mm - 42 W/m² -
1788563430 30.56° C 79% 1013.5 hPa 0 mm - 48 W/m² -
1788563129 30.56° C 79% 1013.2 hPa 0 mm - 53 W/m² -
1788562825 31.11° C 77% 1013 hPa 0 mm - 59 W/m² -
1788562522 31.11° C 78% 1013.3 hPa 0 mm - 72 W/m² -
1788562221 30° C 81% 1013.2 hPa 0 mm - 95 W/m² -
1788561917 30° C 80% 1013 hPa 0 mm - 116 W/m² -
1788561617 30° C 81% 1013 hPa 0 mm - 115 W/m² -
1788561316 30.56° C 79% 1013.1 hPa 0 mm - 133 W/m² -
1788561012 30° C 80% 1012.8 hPa 0 mm - 124 W/m² -
1788560707 30° C 80% 1013 hPa 0 mm - 160 W/m² -
1788560402 29.44° C 81% 1013 hPa 0 mm - 181 W/m² -
1788560096 30.56° C 78% 1012.8 hPa 0 mm - 174 W/m² -

* Rain latest hour (hover to see other rain measurements)
** Current wind speed in m/s (hover to see current wind gust speed)